Location: Cahas Mountain Overlook
(37.0833°N, 80.1000°W)
Time: 17:37:29
(UTC-05:00)

ISS - Pass Details

Date: 07 December 2021
Orbit: 413 x 422 km, 51.6° (Epoch: 28 January)

Event Time Altitude Azimuth Distance (km) Brightness Sun altitude
Rises 18:52:49 0° 302° (WNW) 2,376 0.7 -21.3°
Reaches altitude 10° 18:55:02 10° 293° (WNW) 1,505 -0.2 -21.7°
Maximum altitude 18:58:07 33° 227° (SW) 725 -2.1 -22.3°
Enters shadow 18:59:18 25° 186° (S) 880 -2.0 -22.5°
